Torna al catalogo

STARLINK-35422

AttivoComunicazioniVLEO
NORAD 66068·PAYLOAD·🇺🇸 United States

Lanciato Oct 19, 2025 da Cape Canaveral Space Force Station

Loading…

Prossimi Passaggi (prossime 24 ore)

TLE

AggiornatoSource: CelesTrak SupGP

Epoca: Sep 14, 2026, 22:36 UTC

1 66068C 25235L   26257.94215278 -.00009285  00000+0 -27439-3 0  2573
2 66068  53.1580  83.4775 0001072  83.0648 341.0718 15.34389973    10

Traccia STARLINK-35422 in tempo reale con AllMySat

Download on the App Store